Showing default

OPS 0100 (TRANSIT 15), 2754

Orbit data source: Space-Track

OPS 0100 (TRANSIT 15), 2754 is a payload satellite owned by USN NAVAIR (US) in LEO that was launched on Fri, 14 Apr 1967 UTC via an SCOUT A launch vehicle from the Air Force Western Test Range (AFWTR). Payload-class satellites include a variety of spacecraft equipped with specific instruments for various scientific and technological missions. These include communications satellites like Starlink; space stations such as the ISS; scientific satellites like the Hubble; Earth observation satellites from companies like Planet Labs, Umbra, and HawkEye 360; GPS; miniature CubeSats for education and research; and military/defense satellites.

Loading next visibility...
Identifier
2754, 1967-034A
Orbit
LEO
Country
Flag of USUS
Related business
Manufacturer
APL
Mission
Spacecraft
Bus & Motor
TRANSIT 5, Unknown motor
Mass
~50 kg wet, ~50 kg dry
Launch date (UTC)
1967-04-14 (59 years ago)
Launch vehicle
SCOUT A
Launch site
Air Force Western Test Range (AFWTR)
Object type
Payload
Rocket body
Debris
Shape & HBR
OCT CYL + 4 PAN + ANT, 15.0 m
Radar Cross Section
Medium (>0.1 m² and <1 m²)

Expand to show TLE details & history
Last TLE update: 6 hours ago

TLE from 6 hours ago
0 OPS 0100 (TRANSIT 15)
1  2754U 67034A   26253.68833156  .00000085  00000-0  10717-3 0  9998
2  2754  90.2390  37.2119 0017741 254.1362 116.7063 13.57420308937713
Epoch: 2026-09-10T16:31Z
TLE epoch observation values (Epoch: 2026-09-10T16:31:11.846Z)
Latitude
10.97411°
Longitude
159.64399°
Altitude
1,053.232 km
Speed
7.323 km/s
True Right ascension
02h 28m 39s
True Declination
10° 54' 45"
Sunlit
Object was in full shadow at epoch
Visualization orbit readout
Latitude
Unknown
Longitude
Unknown
Altitude
Unknown
Speed
Unknown
Apparent Right ascension
Unknown
Apparent Declination
Unknown
Sunlit
N/A
Visualization observer readout
Local Sidereal Time
15:19:10
Azimuth
Unknown
Elevation
Unknown
Doppler factor
Unknown
Orbital elements
Apogee altitude
1,055.286 km
Perigee altitude
1,028.957 km
Semi-major axis
7,420.258 km
Eccentricity
0.00177
Inclination
90.239°
RAAN
37.2119°
Arg. of periapsis
254.1362°
True anomaly
116.88773°
Mean anomaly
116.7063°
Eccentric anomaly
116.79703°
Mean motion
3.39559 °/min
Orbital period
106.02 mins
BSTAR
0.00010717
Loading maneuver chart data...
Computing Atmospheric mass density...
Loading historical data...
Loading historical data...
Loading historical data...
Loading historical data...
Loading historical data...
Loading historical data...
Loading historical data...

Documentation

Showing up to 5 results
|